GEFSCGP_con_cape1000_132.txt.gz
Probability
0 0 0 0 0 0 0 0 0 0 0 0 0 6 13 19 26 32 42 39 42 39 29 26 29 29 29 23 19 32 32 23 19 13 13 10 6 6 6 3 6 6 6 3
0 0 0 0 0 0 0 0 0 0 0 0 0 6 13 19 19 32 35 26 39 26 26 23 26 23 26 23 26 23 29 19 13 6 3 3 3 3 6 10 3 6 0 0
0 0 0 0 0 0 0 0 0 0 0 0 0 0 10 13 19 29 42 39 39 29 32 23 26 32 29 26 26 29 26 16 6 6 10 6 0 0 3 3 3 0 0 0
0 0 0 0 0 0 0 0 0 0 0 0 0 0 0 3 13 26 32 35 39 29 32 23 23 29 26 23 23 19 19 13 6 3 6 6 0 0 0 0 0 0 0 0
0 0 0 0 0 0 0 0 0 0 0 0 0 0 0 6 10 19 29 32 29 32 23 23 26 26 29 19 16 16 13 13 3 6 3 0 0 0 0 0 0 0 0 0
0 0 0 0 0 0 0 0 0 0 0 0 0 0 0 6 6 10 23 32 23 26 26 23 23 23 23 19 16 13 13 10 6 6 3 0 0 0 0 0 0 0 0 0
0 0 0 0 0 0 0 0 0 0 0 0 0 0 0 0 3 13 13 19 19 19 16 16 23 26 19 19 23 19 10 10 10 6 3 0 0 0 0 0 0 0 0 0
0 0 0 0 0 0 0 0 0 0 0 0 0 0 0 0 3 6 16 16 13 16 16 16 29 26 26 19 29 13 10 13 10 6 3 3 0 0 0 0 0 0 0 0
0 0 0 0 0 0 0 0 0 0 0 0 0 0 0 0 3 6 13 16 13 16 19 19 23 23 29 26 23 16 10 13 10 10 3 3 3 0 0 0 0 0 0 0
0 0 0 0 0 0 0 0 0 0 0 0 0 0 0 0 0 6 3 13 16 23 23 23 23 23 19 16 16 13 13 10 10 10 6 6 0 0 0 0 0 0 0 0
0 0 0 0 0 0 0 0 0 0 0 0 0 0 0 0 0 3 6 3 13 19 23 13 19 16 10 13 19 6 13 10 10 10 6 6 0 0 0 0 0 0 0 0
0 0 0 0 0 0 0 0 0 0 0 0 0 0 0 0 0 0 3 6 13 23 26 19 16 10 10 6 10 16 13 10 10 6 6 3 0 0 0 0 0 0 0 0
0 0 0 0 0 0 0 0 0 0 0 0 0 0 0 0 0 0 3 6 6 23 23 19 13 3 6 6 13 16 16 13 16 6 6 6 0 0 0 3 3 0 0 0
0 0 0 0 0 0 0 0 0 0 0 0 0 0 0 0 0 0 0 3 10 13 26 19 10 3 6 13 13 16 16 16 16 10 6 6 3 0 0 0 3 3 0 0
0 0 0 0 0 0 0 0 0 0 0 0 0 0 0 0 0 0 0 3 10 13 19 16 10 10 3 10 13 13 16 16 13 13 10 10 3 0 0 0 3 3 0 0
0 0 0 0 0 0 0 0 0 0 0 0 0 0 0 0 0 0 0 3 10 13 19 19 16 6 13 10 13 13 16 13 13 13 10 10 10 13 6 3 3 3 3 0
0 0 0 0 0 0 0 0 0 0 0 0 0 0 0 0 3 3 0 0 10 10 23 19 19 16 16 6 13 16 16 19 19 19 10 10 10 13 10 10 6 3 3 0
0 0 0 0 0 0 0 0 0 0 0 0 0 0 0 0 3 3 3 3 6 6 10 13 16 23 10 10 13 13 19 16 19 19 10 10 6 6 10 10 10 3 3 0
0 0 0 0 0 0 0 0 0 0 0 3 0 0 0 3 3 0 6 3 3 3 10 10 10 6 0 6 6 13 13 13 16 16 13 10 6 10 13 16 13 6 6 3
0 0 0 0 0 0 0 0 0 0 0 0 0 0 3 3 3 3 10 6 10 10 16 16 10 6 6 6 10 10 16 16 13 16 10 6 6 10 19 16 10 3 3 6
0 0 0 0 0 0 0 0 0 0 0 0 0 0 0 0 0 0 6 10 6 13 16 16 16 10 13 13 6 3 6 10 13 13 6 3 3 6 6 13 10 3 3 3
0 0 0 0 0 0 0 0 0 0 0 0 0 0 0 0 0 10 6 6 6 13 13 10 16 13 13 16 10 6 6 3 6 6 3 0 6 6 6 3 3 3 6 3
0 0 0 0 0 0 0 0 0 0 0 0 0 0 0 0 6 10 6 6 13 23 16 16 16 13 13 13 10 10 10 6 3 6 3 3 6 6 0 3 3 0 6 6
0 0 0 0 0 0 0 0 0 0 0 0 3 3 3 3 0 3 6 10 10 16 10 13 13 10 6 10 3 6 3 6 0 0 3 3 3 3 3 6 3 0 0 0
0 0 0 0 0 0 0 0 0 0 0 3 3 3 3 0 0 3 3 6 10 13 3 10 16 16 10 6 6 3 3 3 3 3 3 3 6 0 0 0 0 0 0 0
0 0 0 0 0 0 0 0 0 0 0 0 0 3 0 3 0 0 0 0 3 6 6 10 13 10 10 10 6 6 6 6 6 6 3 6 0 0 0 0 0 0 0 0

GEFSCGP_con_cape1000_138.txt.gz
Probability
0 0 0 0 0 0 0 0 0 0 0 0 0 0 6 16 19 23 29 29 29 35 26 23 26 26 23 13 10 16 13 6 3 10 0 0 3 0 0 0 3 3 6 3
0 0 0 0 0 0 0 0 0 0 0 0 0 0 3 19 23 19 19 19 23 26 26 29 26 16 16 13 6 13 13 6 3 6 0 0 0 0 0 0 3 3 3 0
0 0 0 0 0 0 0 0 0 0 0 0 0 0 3 16 16 16 26 26 32 29 19 23 16 16 16 16 16 16 10 6 6 0 0 0 0 0 0 0 0 0 0 0
0 0 0 0 0 0 0 0 0 0 0 0 0 0 0 6 16 16 23 23 29 26 19 19 16 16 13 13 13 6 6 3 0 0 0 0 0 0 0 0 0 0 0 0
0 0 0 0 0 0 0 0 0 0 0 0 0 0 0 3 6 16 13 23 23 23 16 16 16 13 13 13 10 3 3 0 0 0 0 0 0 0 0 0 0 0 0 0
0 0 0 0 0 0 0 0 0 0 0 0 0 0 0 3 3 10 13 16 26 16 13 13 6 6 6 6 10 3 3 0 0 0 0 0 0 0 0 0 0 0 0 0
0 0 0 0 0 0 0 0 0 0 0 0 0 0 0 0 0 10 10 10 19 16 13 10 6 6 6 10 10 3 3 0 0 0 0 0 0 0 0 0 0 0 0 0
0 0 0 0 0 0 0 0 0 0 0 0 0 0 0 3 3 6 10 13 19 16 13 10 6 6 6 10 10 6 3 0 0 0 0 0 0 0 0 0 0 0 0 0
0 0 0 0 0 0 0 0 0 0 0 0 0 0 0 0 0 6 6 13 23 16 13 10 3 3 3 6 3 6 3 0 0 0 3 0 0 0 0 0 0 0 0 0
0 0 0 0 0 0 0 0 0 0 0 0 0 0 0 0 0 3 10 13 16 16 16 13 6 6 3 3 3 3 0 0 0 0 3 3 0 0 0 0 0 0 0 0
0 0 0 0 0 0 0 0 0 0 0 0 0 0 0 0 0 0 3 6 13 13 16 10 6 6 3 3 3 6 3 0 0 0 3 3 0 0 0 0 0 0 0 0
0 0 0 0 0 0 0 0 0 0 0 0 0 0 0 0 0 0 0 6 3 6 6 3 6 6 3 3 3 6 6 3 3 3 6 3 3 0 0 0 0 0 0 0
0 0 0 0 0 0 0 0 0 0 0 0 0 0 0 0 0 0 0 3 3 6 6 3 3 6 3 3 6 10 6 3 6 6 6 6 3 0 0 0 0 0 0 0
0 0 0 0 0 0 0 0 0 0 0 0 0 0 0 0 0 0 3 3 3 3 0 3 3 6 3 3 6 10 6 3 3 6 6 6 6 3 0 0 0 0 0 0
0 0 0 0 0 0 0 0 0 0 0 0 0 0 0 0 0 0 3 6 3 3 3 0 6 6 6 3 6 6 6 3 3 3 6 6 6 6 3 0 0 0 0 0
0 0 0 0 0 0 0 0 0 0 0 0 0 0 0 0 0 3 3 3 6 6 3 6 3 3 3 0 3 3 0 3 3 3 3 6 6 6 3 3 0 0 0 0
0 0 0 0 0 0 0 0 0 0 0 0 0 0 0 0 0 3 0 3 3 3 10 6 3 3 3 3 3 3 0 3 3 3 3 3 6 6 6 3 0 0 0 0
0 0 0 0 0 0 0 0 0 0 0 0 0 0 0 0 3 3 3 0 0 3 3 3 3 3 3 3 3 3 3 0 3 6 6 6 6 6 6 3 0 0 0 0
0 0 0 0 0 0 0 0 0 0 0 0 0 0 0 0 0 3 0 0 0 0 0 0 3 3 3 3 0 0 3 6 6 6 10 6 6 6 6 6 0 0 0 0
0 0 0 0 0 0 0 0 0 0 0 0 0 0 0 0 0 0 0 0 0 0 0 0 0 3 3 3 0 0 3 3 10 6 6 6 6 6 6 6 3 0 0 0
0 0 0 0 0 0 0 0 0 0 0 0 0 0 0 0 0 0 0 0 0 0 0 0 0 0 3 3 0 0 0 3 3 6 10 6 6 6 6 6 3 0 0 0
0 0 0 0 0 0 0 0 0 0 0 0 0 0 0 0 0 0 0 0 0 0 0 0 0 0 0 0 0 0 0 0 0 3 3 6 10 6 6 3 0 0 0 0
0 0 0 0 0 0 0 0 0 0 0 0 0 0 0 3 0 0 0 0 0 0 0 0 0 0 0 0 0 0 0 0 0 0 3 3 3 6 3 3 0 0 0 0
0 0 0 0 0 0 0 0 0 0 0 0 0 0 0 0 0 0 0 0 0 0 0 0 0 0 0 0 0 0 0 0 0 0 0 0 3 3 0 0 0 0 0 0
0 0 0 0 0 0 0 0 0 0 0 0 0 0 0 0 0 0 0 0 0 0 0 0 0 0 0 0 0 0 0 0 0 0 0 0 0 3 3 0 0 0 0 0
0 0 0 0 0 0 0 0 0 0 0 0 0 0 0 0 0 0 0 0 0 0 0 0 0 0 0 0 0 0 0 0 0 0 0 0 0 0 0 0 0 0 0 0

GEFSCGP_con_cape1000_144.txt.gz
Probability
0 0 0 0 0 0 0 0 0 0 0 0 0 0 3 13 29 32 55 68 68 65 65 68 61 61 61 77 71 68 77 77 74 71 71 77 77 68 58 61 55 58 61 65
0 0 0 0 0 0 0 0 0 0 0 0 3 3 3 23 26 45 58 74 68 65 61 68 61 61 65 65 68 68 74 77 71 68 74 71 65 52 55 55 58 48 45 58
0 0 0 0 0 0 0 0 0 0 3 3 3 3 13 19 32 39 45 58 61 65 65 68 55 55 55 58 55 42 68 65 71 71 71 58 61 58 45 48 55 42 39 42
0 0 0 0 0 0 0 0 0 0 0 0 3 0 13 13 26 39 65 61 61 58 61 61 58 55 48 45 48 61 58 65 68 68 55 48 45 32 39 52 42 39 48 35
0 0 0 0 0 0 0 0 0 0 0 0 3 0 0 10 10 23 45 61 58 65 61 58 52 52 52 39 42 55 58 65 61 61 55 55 55 35 39 42 52 48 39 35
0 0 0 0 0 0 0 0 0 0 0 0 0 0 0 3 6 13 23 45 61 65 61 55 55 48 52 45 42 42 52 65 65 58 55 58 58 48 48 52 42 39 39 39
0 0 0 0 0 0 0 0 0 0 0 0 0 0 0 0 3 6 26 32 45 55 58 58 58 61 55 45 45 48 58 58 58 52 42 45 55 52 45 42 39 32 23 32
0 0 0 0 0 0 0 0 0 0 0 0 3 0 0 0 6 6 29 39 45 48 58 58 58 58 55 48 52 55 55 45 48 48 48 45 48 48 39 48 29 32 19 26
0 0 0 0 0 0 0 0 0 0 0 0 0 0 0 6 6 10 29 35 39 55 48 55 58 58 52 45 48 45 55 45 58 55 48 52 48 52 39 52 48 23 23 19
0 0 0 0 0 0 0 0 0 0 0 0 0 0 0 0 0 6 26 45 42 48 48 48 55 55 48 45 52 42 52 45 52 52 52 39 45 48 55 45 39 35 32 23
0 0 0 0 0 0 0 0 0 0 0 0 0 0 0 3 16 13 16 35 48 52 58 52 52 52 48 45 48 45 48 48 45 45 45 42 42 48 48 39 42 39 42 35
0 0 0 0 0 0 0 0 0 0 0 0 0 0 0 3 6 13 13 32 45 58 55 45 52 52 52 45 42 45 42 45 39 45 48 48 52 45 42 39 39 39 35 35
0 0 0 0 0 0 0 0 0 0 0 0 0 0 0 3 3 16 23 35 48 61 55 55 58 55 55 48 42 48 61 55 42 45 52 52 45 52 39 39 42 35 35 32
0 3 0 0 0 0 0 0 0 0 0 0 0 0 0 3 10 16 23 35 48 61 65 61 68 71 65 55 52 45 52 52 48 48 48 55 55 48 42 45 39 35 35 32
0 0 0 0 0 0 0 0 0 0 0 0 0 0 6 3 13 19 32 32 35 52 61 61 74 71 65 61 65 61 58 58 55 52 42 55 52 52 42 42 35 35 35 26
6 0 0 0 0 0 0 0 0 0 0 0 0 0 6 16 16 26 35 35 42 42 55 61 71 74 74 81 71 71 71 58 58 58 55 52 48 48 42 39 35 35 29 29
3 6 0 0 0 0 0 0 0 0 0 0 0 3 3 10 16 19 29 39 45 48 58 68 71 77 90 84 81 77 74 71 65 58 52 45 48 48 39 29 32 32 26 29
3 10 0 0 0 0 3 0 3 3 3 3 6 3 10 16 19 16 23 29 29 39 45 65 71 71 84 87 87 81 77 77 74 65 55 52 52 45 48 45 35 45 32 29
6 3 0 0 0 0 3 3 3 6 3 3 3 6 6 6 6 10 10 10 19 26 48 55 71 68 77 84 87 87 84 84 65 65 58 52 48 42 42 42 52 55 52 42
3 3 0 0 0 0 3 0 0 3 10 0 6 3 3 16 10 3 13 13 16 23 35 45 61 74 74 84 90 90 81 81 77 68 65 61 55 52 55 52 55 52 55 48
0 0 0 0 0 0 0 0 3 0 0 3 3 0 3 10 6 16 19 19 16 29 45 39 45 65 68 74 74 87 81 71 77 68 65 71 61 65 55 52 52 55 45 42
0 0 0 0 0 0 0 0 0 3 10 3 0 0 6 10 6 10 16 26 19 23 32 32 55 68 65 58 74 74 81 77 77 74 74 74 65 52 42 52 55 52 48 45
0 0 0 0 0 0 0 3 6 3 3 3 10 13 10 3 3 10 19 19 19 23 29 26 35 48 58 58 58 61 71 68 81 77 77 77 68 58 55 55 58 52 48 35
0 0 0 0 0 0 0 3 3 3 6 10 10 3 0 0 3 13 10 13 13 19 26 29 26 35 42 48 48 52 58 61 68 71 71 71 68 58 48 48 48 39 32 29
0 0 0 0 0 0 0 3 3 6 0 0 0 0 3 0 6 10 10 6 10 13 13 19 26 32 35 35 35 42 52 55 58 55 55 48 48 35 39 32 16 13 26 16
0 0 0 0 0 3 3 3 0 0 0 3 6 3 3 3 3 6 6 3 6 10 10 13 16 23 26 26 32 35 42 45 48 48 42 39 32 26 16 13 10 3 3 0

GEFSCGP_con_cape1000_150.txt.gz
Probability
0 0 0 0 0 0 0 0 0 0 0 0 0 6 10 3 13 10 39 58 71 84 81 77 77 74 71 68 68 61 65 65 68 74 74 74 68 74 71 74 84 81 81 77
0 0 0 0 0 0 0 0 0 0 0 0 0 0 10 10 3 13 32 61 71 81 81 81 74 71 71 65 68 65 58 61 68 71 71 74 61 65 65 71 84 81 77 81
0 0 0 0 0 0 0 0 0 0 0 0 0 0 0 3 6 13 26 52 61 81 77 81 74 71 71 71 68 61 65 71 68 68 74 71 61 55 68 74 77 77 71 61
0 0 0 0 0 0 0 0 0 0 0 0 0 0 3 10 10 10 29 48 58 77 74 77 77 71 68 68 65 77 74 77 71 65 65 61 55 48 65 74 71 68 58 61
0 0 0 0 0 0 0 0 0 0 0 0 0 0 3 6 10 13 16 32 42 74 68 74 81 74 68 65 71 74 81 77 74 74 71 77 58 65 61 68 71 71 61 58
0 0 0 0 0 0 0 0 0 0 0 0 0 0 0 3 0 10 19 26 52 65 65 68 71 71 68 68 77 71 77 77 74 74 71 65 68 71 71 71 68 68 58 55
0 0 0 0 0 0 0 0 0 0 0 0 0 0 0 0 0 6 19 35 39 61 65 71 74 71 71 74 77 77 77 81 77 74 74 74 71 71 68 58 61 61 52 52
0 0 0 0 0 0 0 0 0 0 0 0 0 0 3 0 0 6 19 32 35 65 65 61 71 68 65 61 68 74 71 71 68 71 77 81 74 65 61 68 61 58 52 55
0 0 0 0 0 0 0 0 0 0 0 0 0 0 0 3 0 10 23 29 29 52 61 65 71 68 65 65 68 68 77 71 77 77 74 81 74 58 58 68 58 55 61 48
0 0 0 0 0 0 0 0 0 0 0 0 0 0 3 6 3 3 19 26 39 42 55 65 58 74 65 71 68 68 71 74 71 65 74 55 65 65 65 58 58 65 65 58
0 0 0 0 0 0 0 0 0 0 3 0 0 0 0 3 6 6 16 29 42 48 58 68 71 74 74 71 71 74 74 77 74 61 61 61 61 55 61 55 58 61 61 52
0 0 0 0 0 0 0 0 0 0 0 0 0 0 0 3 6 6 13 26 39 42 61 68 68 65 71 71 65 74 74 74 71 71 68 58 61 61 55 58 58 65 61 61
0 0 3 0 0 0 0 0 0 0 3 0 0 0 0 3 6 16 16 32 42 48 68 77 84 74 71 71 68 68 65 65 55 61 58 55 58 55 58 58 61 61 58 48
0 0 0 0 0 0 0 0 0 0 0 0 0 0 0 3 13 23 29 35 39 65 84 81 90 84 74 81 74 68 71 58 55 61 58 61 55 65 61 61 61 61 61 58
0 0 0 0 0 0 0 0 0 0 0 0 3 0 6 16 26 16 23 26 45 61 77 84 87 87 90 84 84 71 68 65 68 71 68 68 65 68 61 61 58 61 58 52
0 0 0 0 0 0 0 0 0 0 0 0 0 0 10 13 16 26 29 35 45 61 65 81 81 90 94 87 84 77 81 74 81 74 68 68 68 65 58 58 61 61 61 58
0 3 0 0 0 0 0 0 0 0 0 0 6 6 16 16 23 26 35 32 39 52 71 81 84 94 100 94 94 90 84 84 81 74 74 81 74 68 61 48 58 65 68 71
13 19 10 0 0 0 0 0 0 0 3 6 10 16 19 19 16 19 26 35 35 42 48 71 81 90 90 94 94 94 90 84 81 81 77 77 77 68 65 74 61 65 68 74
13 13 3 0 0 0 0 3 3 3 3 6 13 13 13 23 16 19 26 26 35 48 55 61 68 74 90 94 90 90 90 84 84 81 81 84 81 77 68 71 74 81 81 81
3 10 3 0 0 0 0 0 0 3 3 10 10 16 13 13 19 13 26 29 32 42 45 61 65 74 84 97 100 100 87 87 87 77 81 81 81 77 71 77 77 81 81 77
0 3 0 0 0 0 0 0 0 0 10 13 10 13 16 23 16 26 32 29 35 42 42 55 58 65 74 84 90 90 87 90 87 81 87 87 84 84 87 77 81 74 71 68
0 0 0 0 0 0 0 0 3 13 13 10 10 10 10 13 16 19 29 19 26 29 29 35 55 61 71 65 74 77 77 77 87 90 87 87 81 71 55 77 77 71 65 71
0 3 6 6 0 6 3 6 13 19 10 10 6 6 6 13 16 16 19 23 23 26 29 32 32 39 45 52 52 65 71 74 77 71 74 74 77 74 74 71 68 58 58 35
0 0 0 0 3 6 6 6 10 6 6 6 6 6 6 13 13 13 13 16 16 19 23 23 23 29 39 39 42 52 55 65 65 68 65 65 65 71 71 65 45 42 39 32
0 3 3 6 3 3 3 3 6 6 3 3 3 10 13 3 6 13 13 10 10 13 16 16 19 29 29 32 35 42 48 52 61 61 65 65 55 52 48 35 26 19 16 10
0 0 0 0 0 3 3 6 3 0 3 3 3 3 0 0 6 3 6 6 6 6 16 16 16 26 23 23 26 35 42 45 48 48 48 45 48 39 32 19 10 0 0 0

GEFSCGP_con_cape1000_156.txt.gz
Probability
0 0 0 0 0 0 0 0 0 0 0 0 0 0 3 3 3 19 32 55 55 61 68 61 58 58 65 52 48 45 42 32 35 39 42 35 39 39 32 29 26 26 29 19
0 0 0 0 0 0 0 0 0 0 0 0 0 0 3 3 6 16 32 48 65 61 65 68 61 65 58 55 48 45 42 35 35 35 32 29 29 29 23 23 23 32 23 16
0 0 0 0 0 0 0 0 0 0 0 0 0 0 3 10 6 13 26 39 74 65 68 71 58 55 58 52 55 52 42 35 35 35 29 23 23 19 23 23 16 13 16 19
0 0 0 0 0 0 0 0 0 0 0 0 0 0 0 6 13 16 23 39 48 61 61 61 61 58 58 52 52 48 48 42 32 32 29 19 23 19 16 16 13 10 10 13
0 0 0 0 0 0 0 0 0 0 0 0 0 0 0 6 10 13 16 32 45 58 55 52 61 61 48 45 45 45 45 39 35 35 29 23 19 10 6 10 10 6 6 6
0 0 0 0 0 0 0 0 0 0 0 0 0 0 0 3 10 10 10 29 48 42 48 55 58 55 48 42 39 42 45 39 39 39 29 16 13 13 13 3 6 3 6 3
0 0 0 0 0 0 0 0 0 0 0 0 0 0 0 0 6 10 16 23 42 35 39 45 48 52 52 45 39 42 42 42 35 26 19 16 10 10 10 3 3 0 0 0
0 0 0 0 0 0 0 0 0 0 0 0 0 0 0 0 6 10 23 23 35 35 32 39 48 48 48 39 42 42 42 42 35 26 19 19 10 10 10 3 3 0 0 0
0 0 0 0 0 0 0 0 0 0 0 0 0 0 0 3 6 16 26 23 35 32 35 35 42 39 35 42 42 45 35 32 29 26 23 19 16 13 10 3 0 0 0 0
0 0 0 0 0 0 0 0 0 0 0 0 0 0 0 0 6 10 23 19 16 23 35 32 35 39 39 39 35 39 35 39 35 29 26 29 19 16 10 0 0 0 0 0
0 0 0 0 0 0 0 0 0 0 0 0 0 0 0 0 0 3 10 10 10 16 23 29 29 39 39 35 39 35 35 39 32 35 16 23 23 13 10 3 0 0 0 0
0 0 0 0 0 0 0 0 0 0 0 0 0 0 0 0 0 0 10 13 10 16 23 26 26 35 35 35 35 35 35 35 26 23 19 23 19 13 10 3 0 0 0 0
0 0 0 0 0 0 0 0 0 0 0 0 0 0 0 3 3 0 6 13 13 10 23 23 26 32 35 39 42 35 35 35 32 19 13 10 13 10 10 3 3 0 0 0
0 0 0 0 0 0 0 0 0 0 0 0 0 0 0 3 3 3 10 13 10 16 19 19 19 26 35 39 39 35 39 32 19 13 13 10 13 10 6 6 3 3 0 0
0 0 0 0 0 0 0 0 0 0 0 0 0 0 3 6 6 3 3 10 19 19 19 16 23 23 23 32 32 35 32 29 23 10 13 6 10 10 6 6 6 3 0 3
0 0 0 0 0 0 0 0 0 0 0 0 3 3 3 6 0 0 6 16 19 23 23 23 23 23 23 26 29 35 26 26 23 19 16 13 10 13 10 6 6 3 0 0
0 0 0 0 0 0 0 0 3 0 0 0 0 3 0 0 0 3 6 10 16 23 26 26 26 16 16 16 16 29 26 23 26 23 19 16 10 13 10 10 6 6 6 0
0 0 0 0 0 0 0 0 0 0 0 3 0 0 0 3 3 6 6 16 16 23 26 19 16 19 16 10 10 6 16 23 23 23 23 13 10 13 13 10 10 6 10 10
0 0 0 0 0 0 0 0 0 0 0 0 0 0 6 13 10 19 16 13 13 10 13 16 16 6 6 6 10 10 10 19 16 16 10 13 16 13 13 10 10 10 10 13
0 0 0 0 0 0 0 0 0 0 0 0 0 0 3 3 3 13 13 13 10 10 10 13 13 13 13 6 3 10 3 6 6 16 10 13 13 13 13 13 6 6 10 6
0 0 0 0 0 0 0 0 0 0 0 0 0 0 6 3 6 10 10 6 6 10 10 16 13 13 13 13 6 6 6 3 6 6 6 6 6 13 13 13 10 10 10 6
0 0 0 0 0 0 0 0 0 0 0 3 0 0 3 3 3 3 3 3 0 6 10 13 13 13 13 10 10 10 6 3 3 3 6 10 13 10 13 13 10 6 10 10
0 0 0 0 0 0 0 0 0 0 0 0 0 0 0 3 3 3 3 0 3 6 13 13 13 10 10 6 6 6 10 10 3 10 3 6 10 10 10 10 13 10 10 10
0 0 0 0 0 0 0 0 0 0 0 0 0 0 0 0 0 3 0 0 3 3 3 6 6 6 3 6 6 6 10 6 13 10 6 6 6 6 6 6 10 10 10 6
0 0 0 0 0 0 0 0 0 0 0 0 0 0 0 0 0 0 0 3 3 0 0 3 3 3 0 0 0 3 6 10 10 10 10 6 6 6 3 0 0 3 3 3
0 0 0 0 0 0 0 0 0 0 0 0 0 0 0 0 3 3 3 0 0 0 0 0 0 0 0 0 0 0 6 3 10 10 10 6 6 3 3 3 3 0 0 0